Regional Weather Roundup
Issued by NWS

Home | Current Version | Previous Version | Graphics & Text | Print | Product List | Glossary On
Versions: 1 2 3 4 5 6 7 8 9 10 11 12 13 14 15 16 17 18 19 20 21 22 23 24 25 26 27 28 29 30 31 32 33 34 35 36 37 38 39 40 41 42 43 44 45 46 47 48 49 50
000
ASUS43 KLMK 180910
RWRKY
KENTUCKY REGIONAL WEATHER ROUNDUP
NATIONAL WEATHER SERVICE LOUISVILLE KY
400 AM EST WED JAN 18 2017

NOTE "FAIR" INDICATES FEW OR NO CLOUDS BELOW 12,000 FEET
WITH NO SIGNIFICANT WEATHER AND/OR OBSTRUCTIONS TO VISIBILITY.

KYZ001>023-026-027-061>063-070>075-181000-
WESTERN AND SOUTH CENTRAL KENTUCKY

CITY           SKY/WX    TMP DP  RH WIND       PRES   REMARKS
PADUCAH        CLOUDY    44  37  76 N7        30.18R
HENDERSON      CLOUDY    43  36  75 NW12      30.18R
OWENSBORO      CLOUDY    43  38  82 NW12      30.18R
HOPKINSVILLE   CLOUDY    44  39  83 N5        30.16F
BOWLING GREEN  CLOUDY    46  40  79 NW3       30.17S
GLASGOW        CLOUDY    43  40  87 NW7       30.16S
$$

KYZ024-025-028>034-038-045-046-053-181000-
NORTH CENTRAL KENTUCKY

CITY           SKY/WX    TMP DP  RH WIND       PRES   REMARKS
LOUISVILLE/SDF CLOUDY    44  37  76 NW13      30.14R
LOUISVILLE/LOU CLOUDY    44  37  76 W14       30.15R
FORT KNOX      CLOUDY    43  39  87 W9        30.13R
$$

KYZ035>037-039>044-047>052-055>060-089>105-181000-
NORTHEAST KENTUCKY

CITY           SKY/WX    TMP DP  RH WIND       PRES   REMARKS
LEXINGTON      CLOUDY    42  37  82 W13       30.12R
COVINGTON      DRIZZLE   41  38  89 W12       30.09R
FRANKFORT      CLOUDY    43  37  79 W7        30.11R
$$

KYZ054-064>069-076>088-106>120-181000-
SOUTHEAST KENTUCKY

CITY           SKY/WX    TMP DP  RH WIND       PRES   REMARKS
JACKSON        CLOUDY    45  41  86 W6        30.08R
LONDON         CLOUDY    47  41  80 NW9G17    30.11R
SOMERSET       CLOUDY    45  39  81 W8        30.14S
MIDDLESBORO    CLOUDY    52  46  79 W10       30.09R
MONTICELLO     CLOUDY    46  42  86 NW13      30.15R
$$





USA.gov is the U.S. government's official web portal to all federal, state and local government web resources and services.